| time (UTC) | temp C | wind direction | speed KPH | gust KPH | rain 1hr cm | rain 24hr cm | rain mn cm | humidity % | barometer mb |
| 20260503021503 | 10 | 255 | 3.2 | 9.7 | 0.00 | 0.53 | 0.00 | 99 | 1009.1 |
| 20260503020003 | 10 | 253 | 6.4 | 11.3 | 0.00 | 0.53 | 0.00 | 99 | 1009.3 |
| 20260503014503 | 10 | 255 | 4.8 | 8.0 | 0.00 | 0.53 | 0.00 | 99 | 1009.2 |
| 20260503013003 | 10 | 241 | 3.2 | 6.4 | 0.00 | 0.53 | 0.00 | 99 | 1009.4 |
| 20260503011503 | 9 | 243 | 1.6 | 4.8 | 0.00 | 0.53 | 0.00 | 99 | 1009.5 |
| 20260503010003 | 10 | 0 | 0.0 | 0.0 | 0.00 | 0.53 | 0.00 | 99 | 1009.4 |
| 20260503004503 | 10 | 306 | 1.6 | 4.8 | 0.00 | 0.53 | 0.00 | 99 | 1009.5 |
| 20260503003003 | 10 | 269 | 1.6 | 3.2 | 0.00 | 0.53 | 0.00 | 99 | 1009.7 |
| 20260503001503 | 10 | 256 | 0.0 | 6.4 | 0.00 | 0.53 | 0.00 | 99 | 1009.9 |
| 20260503000218 | 10 | 0 | 0.0 | 0.0 | 0.00 | 0.53 | 0.00 | 99 | 1010.0 |
| 20260502234503 | 9 | 0 | 0.0 | 0.0 | 0.03 | 0.53 | 0.53 | 99 | 1010.1 |
| 20260502233003 | 9 | 0 | 0.0 | 0.0 | 0.03 | 0.53 | 0.53 | 99 | 1010.2 |
| 20260502231503 | 9 | 17 | 0.0 | 3.2 | 0.03 | 0.53 | 0.53 | 97 | 1010.3 |
| 20260502230216 | 9 | 125 | 1.6 | 3.2 | 0.03 | 0.53 | 0.53 | 97 | 1010.3 |
| 20260502224503 | 9 | 115 | 3.2 | 4.8 | 0.00 | 0.51 | 0.51 | 97 | 1010.3 |
| 20260502223003 | 9 | 0 | 0.0 | 0.0 | 0.00 | 0.51 | 0.51 | 97 | 1010.5 |
| 20260502221503 | 9 | 157 | 0.0 | 1.6 | 0.03 | 0.51 | 0.51 | 97 | 1010.6 |
| 20260502220003 | 9 | 174 | 1.6 | 6.4 | 0.03 | 0.51 | 0.51 | 97 | 1010.7 |
| 20260502214503 | 9 | 162 | 0.0 | 1.6 | 0.05 | 0.51 | 0.51 | 97 | 1010.7 |
| 20260502213218 | 9 | 123 | 0.0 | 3.2 | 0.05 | 0.51 | 0.51 | 97 | 1010.9 |
| 20260502211503 | 10 | 101 | 1.6 | 4.8 | 0.05 | 0.51 | 0.51 | 95 | 1011.0 |
| 20260502210215 | 10 | 123 | 1.6 | 3.2 | 0.10 | 0.51 | 0.51 | 95 | 1011.2 |
| 20260502204503 | 10 | 62 | 0.0 | 3.2 | 0.13 | 0.48 | 0.48 | 95 | 1011.2 |
| 20260502203003 | 10 | 95 | 0.0 | 3.2 | 0.10 | 0.46 | 0.46 | 95 | 1011.3 |
| 20260502201503 | 10 | 90 | 1.6 | 3.2 | 0.10 | 0.43 | 0.43 | 95 | 1011.4 |
| 20260502200003 | 10 | 0 | 0.0 | 0.0 | 0.08 | 0.41 | 0.41 | 95 | 1011.4 |
| 20260502194503 | 10 | 0 | 0.0 | 0.0 | 0.08 | 0.36 | 0.36 | 94 | 1011.2 |
| 20260502193003 | 10 | 0 | 0.0 | 0.0 | 0.15 | 0.36 | 0.36 | 94 | 1011.3 |
| 20260502191503 | 10 | 85 | 0.0 | 3.2 | 0.15 | 0.33 | 0.33 | 94 | 1011.2 |
| 20260502190003 | 11 | 0 | 0.0 | 0.0 | 0.18 | 0.33 | 0.33 | 92 | 1011.5 |
| 20260502184503 | 11 | 0 | 0.0 | 0.0 | 0.18 | 0.28 | 0.28 | 92 | 1011.6 |
| 20260502183003 | 11 | 0 | 0.0 | 0.0 | 0.15 | 0.23 | 0.23 | 92 | 1011.9 |
| 20260502181503 | 11 | 161 | 0.0 | 3.2 | 0.13 | 0.18 | 0.18 | 91 | 1012.1 |
| 20260502163003 | 15 | 0 | 0.0 | 0.0 | 0.00 | 0.03 | 0.03 | 76 | 1012.5 |
| 20260502161503 | 15 | 0 | 0.0 | 3.2 | 0.00 | 0.03 | 0.03 | 72 | 1012.6 |
| 20260502151503 | 15 | 141 | 3.2 | 8.0 | 0.00 | 0.03 | 0.03 | 66 | 1013.1 |
| 20260502123003 | 17 | 202 | 4.8 | 11.3 | 0.00 | 0.15 | 0.03 | 61 | 1014.9 |
| 20260502121503 | 16 | 187 | 3.2 | 9.7 | 0.00 | 0.15 | 0.03 | 61 | 1015.0 |
| 20260502114503 | 16 | 189 | 3.2 | 11.3 | 0.00 | 0.15 | 0.03 | 62 | 1015.6 |
| 20260502113003 | 15 | 167 | 4.8 | 11.3 | 0.00 | 0.15 | 0.03 | 67 | 1015.5 |
| 20260502111503 | 16 | 183 | 4.8 | 14.5 | 0.00 | 0.15 | 0.03 | 61 | 1015.8 |
| 20260502110216 | 16 | 213 | 6.4 | 12.9 | 0.00 | 0.15 | 0.03 | 64 | 1016.0 |
| 20260502104503 | 15 | 218 | 4.8 | 11.3 | 0.00 | 0.15 | 0.03 | 70 | 1016.3 |
| 20260502103004 | 14 | 253 | 4.8 | 12.9 | 0.00 | 0.15 | 0.03 | 71 | 1016.4 |
| 20260502091503 | 13 | 236 | 4.8 | 16.1 | 0.00 | 0.15 | 0.03 | 79 | 1017.0 |
| 20260502071503 | 8 | 0 | 0.0 | 0.0 | 0.00 | 0.15 | 0.03 | 100 | 1017.3 |
| 20260502070003 | 8 | 0 | 0.0 | 0.0 | 0.00 | 0.15 | 0.03 | 100 | 1017.2 |
| 20260502064503 | 7 | 0 | 0.0 | 0.0 | 0.00 | 0.15 | 0.03 | 100 | 1017.4 |
| 20260502063003 | 6 | 0 | 0.0 | 0.0 | 0.00 | 0.15 | 0.03 | 100 | 1017.4 |
| 20260502061503 | 6 | 0 | 0.0 | 0.0 | 0.00 | 0.15 | 0.03 | 99 | 1017.2 |
| 20260502060003 | 6 | 0 | 0.0 | 0.0 | 0.00 | 0.15 | 0.03 | 99 | 1017.2 |
| 20260502054503 | 5 | 0 | 0.0 | 0.0 | 0.00 | 0.15 | 0.03 | 99 | 1017.2 |
| 20260502053003 | 5 | 0 | 0.0 | 0.0 | 0.03 | 0.15 | 0.03 | 99 | 1017.2 |
| 20260502051503 | 5 | 0 | 0.0 | 0.0 | 0.03 | 0.15 | 0.03 | 99 | 1017.1 |
| 20260502050003 | 5 | 0 | 0.0 | 0.0 | 0.03 | 0.15 | 0.03 | 97 | 1017.2 |
| 20260502044503 | 5 | 0 | 0.0 | 0.0 | 0.03 | 0.15 | 0.03 | 97 | 1017.2 |
| 20260502043003 | 6 | 0 | 0.0 | 0.0 | 0.00 | 0.15 | 0.00 | 97 | 1017.2 |
| 20260502041503 | 6 | 243 | 0.0 | 3.2 | 0.00 | 0.15 | 0.00 | 99 | 1017.3 |
| 20260502040003 | 6 | 252 | 1.6 | 4.8 | 0.00 | 0.15 | 0.00 | 99 | 1017.4 |
| 20260502034503 | 6 | 259 | 4.8 | 9.7 | 0.00 | 0.15 | 0.00 | 99 | 1017.5 |
| 20260502033003 | 6 | 271 | 1.6 | 11.3 | 0.00 | 0.15 | 0.00 | 99 | 1017.5 |
| 20260502031503 | 7 | 268 | 4.8 | 11.3 | 0.00 | 0.15 | 0.00 | 99 | 1017.7 |
| 20260502030003 | 7 | 253 | 4.8 | 6.4 | 0.00 | 0.15 | 0.00 | 99 | 1017.8 |
| 20260502024719 | 7 | 260 | 4.8 | 6.4 | 0.00 | 0.15 | 0.00 | 99 | 1017.8 |
| 20260502023003 | 7 | 256 | 4.8 | 9.7 | 0.00 | 0.15 | 0.00 | 99 | 1017.8 |